Regional Weather Roundup
Issued by NWS Cleveland, OH

Home | Current Version | Previous Version | Graphics & Text | Print | Product List | Glossary On
Versions: 1 2 3 4 5 6 7 8 9 10 11 12 13 14 15 16 17 18 19 20 21 22 23 24 25 26 27 28 29 30 31 32 33 34 35 36 37 38 39 40 41 42 43 44 45 46 47 48 49 50
000
ASUS41 KCLE 250402
RWRCLE
OHIO REGIONAL WEATHER ROUNDUP
NATIONAL WEATHER SERVICE CLEVELAND, OH
1200 AM EDT WED APR 25 2018

NOTE: "FAIR" INDICATES FEW OR NO CLOUDS BELOW 12,000 FEET WITH NO
SIGNIFICANT WEATHER AND/OR OBSTRUCTIONS TO VISIBILITY.

OHZ001>008-015>018-024>027-034-035-043-044-250500-
   NORTHWEST OHIO

CITY           SKY/WX    TMP DP  RH WIND       PRES   REMARKS
DEFIANCE       CLOUDY    50  48  93 NE6       29.95F
FINDLAY        CLOUDY    52  49  89 NE6       29.91F FOG
TOLEDO EXPRESS CLOUDY    50  50 100 NE5       29.94S FOG
TOLEDO EXEC    CLOUDY    48  47  96 NE3       29.94F FOG
LIMA           FOG       51  51 100 N6        29.92S VSB 1/4
$$

OHZ009>014-019>023-028>033-038-089-250500-
   NORTHEAST OHIO

CITY           SKY/WX    TMP DP  RH WIND       PRES   REMARKS
CLE-HOPKINS    LGT RAIN  53  50  89 SE6       29.95F
CLE-LAKEFRONT  LGT RAIN  53  49  86 SE5       29.92F
CUY CO. ARPT   NOT AVBL
LORAIN-ELYRIA  LGT RAIN  52  47  83 NE7       29.93F
ASHTABULA      LGT RAIN  51  50  96 SE7       29.97F
AKRON-CANTON   CLOUDY    52  48  86 E8        29.92F
WOOSTER        CLOUDY    50  50 100 SE8       29.92F FOG
MANSFIELD      CLOUDY    51  51 100 E5        29.92F FOG
YOUNGSTOWN     LGT RAIN  50  49  96 E8        29.94F
$$

OHZ042-051>053-060>062-070>072-077>081-250500-
  SOUTHWEST OHIO

CITY           SKY/WX    TMP DP  RH WIND       PRES   REMARKS
CINC-COVINGTON CLOUDY    54  52  93 N10       29.90F
CINC-LUNKEN    CLOUDY    55  54  96 N7        29.91F FOG
HAMILTON       CLOUDY    54  52  93 NW6       29.92F
DAYTON         LGT RAIN  52  52 100 N7        29.92S VSB 1/2
WRIGHT-PAT AFB NOT AVBL
DAYTON GENERAL CLOUDY    54  52  93 N7        29.90S FOG
WILMINGTON     FOG       53  53 100 N5        29.89F VSB 3/4
$$

OHZ036-037-039>041-045>050-054>059-063>069-073>076-082>088-250500-
  CENTRAL AND SOUTHEAST OHIO

CITY           SKY/WX    TMP DP  RH WIND       PRES   REMARKS
COLUMBUS       CLOUDY    54  51  90 CALM      29.89F
OSU AIRPORT    CLOUDY    53  52  96 N3        29.90F
BOLTON FIELD   CLOUDY    53  52  96 CALM      29.90F
RICKENBACK AFB NOT AVBL
NEWARK         CLOUDY    53  52  96 CALM      29.89F FOG
MARION         CLOUDY    52  50  93 CALM      29.92F
LANCASTER      CLOUDY    53  52  96 CALM      29.90F
ZANESVILLE     CLOUDY    53  50  89 CALM      29.89F
NEW PHILLY     NOT AVBL
$$



USA.gov is the U.S. government's official web portal to all federal, state and local government web resources and services.